STARLINK-11334 [DTC] (61250 NORAD) Tracking and Keplerian Element Data

This shows tracking and keplerian element data for the satellite.

Feedback or suggestion? Click here.




ElementValue
Catalog61250
NameSTARLINK-11334 [DTC]
Epoch Orbit371
Epoch Day286.91668981
Epoch Year2024
RAAN65.0814
Inclination53.1634
Eccentricity0.0002184
Argument of Perigee36.0756
Mean Anonmoly43.9299
Mean Motion15.8216962
Decay Rate0.00316506
L11 61250U 24175H 24286.91668981 .00316506 00000+0 14589-2 0 9992
L22 61250 53.1634 65.0814 0002184 36.0756 43.9299 15.82169620 3711



Live tracking and technical data element details for STARLINK-11334 [DTC] (NORAD 61250). STARLINK-11334 [DTC] can be tracked NOW for your location showing map with azimuth and elevation plus other details from your city location.







IsCatalogInMostPopularTable: catalog: 61250, numindb: 24
Update: records affected: 1



GetName: 61250 STARLINK-11334 [DTC]

Hit Count: updated at: Wed, 04 Dec 2024 08:42:45 GMT